Printer-friendly version

IAU Minor Planet Center

Minor Planet Center

MPEC 2006-L21 : 2006 LK

The following Minor Planet Electronic Circular may be linked-to from your own Web pages, but must not otherwise be redistributed electronically.


Read MPEC 2006-L20 Read MPEC 2006-L22


M.P.E.C. 2006-L21                                Issued 2006 June 2, 20:25 UT

     The Minor Planet Electronic Circulars contain information on unusual
         minor planets and routine data on comets.  They are published
   on behalf of Commission 20 of the International Astronomical Union by the
          Minor Planet Center, Smithsonian Astrophysical Observatory,
                          Cambridge, MA 02138, U.S.A.

                  Supported in part by the Brinson Foundation
                  Supported in part by the TABASGO Foundation
             Prepared using the Tamkin Foundation Computer Network

                              MPC@CFA.HARVARD.EDU
          URL http://cfa-www.harvard.edu/iau/mpc.html  ISSN 1523-6714

                                    2006 LK

Observations:
     K06L00K* C2006 06 01.36702 16 44 15.44 -01 21 02.9          21.5 V EL021691
     K06L00K  C2006 06 01.38204 16 44 14.25 -01 20 55.8          21.8 V EL021691
     K06L00K  C2006 06 01.39839 16 44 12.97 -01 20 47.9          21.6 V EL021691
     K06L00K  C2006 06 02.00604 16 43 27.24 -01 16 11.9                 EL021J95
     K06L00K  C2006 06 02.02116 16 43 26.00 -01 16 05.4          21.0 R EL021J95
     K06L00K HC2006 06 02.36540 16 42 59.57 -01 13 26.7                 EL021291
     K06L00K HC2006 06 02.36933 16 42 59.24 -01 13 24.1                 EL021291
     K06L00K HC2006 06 02.37562 16 42 58.75 -01 13 22.2                 EL021291

Observer details:
291 LPL/Spacewatch II.  Observer J. V. Scotti.  1.8-m f/2.7 reflector + CCD.
691 Steward Observatory, Kitt Peak.  Observer J. V. Scotti.  0.9-m f/3
    reflector + CCD.
J95 Great Shefford.  Observer P. Birtwhistle.  0.40-m f/6.0 Schmidt-Cassegrain
    + CCD.

Orbital elements:
2006 LK                                                  Earth MOID = 0.1436 AU
Epoch 2006 Mar. 6.0 TT = JDT 2453800.5                  MPC
M 283.10952              (2000.0)            P               Q
n   0.33752794     Peri.  189.03281     +0.97667853     +0.20719127
a   2.0429743      Node   158.75466     -0.18600911     +0.94750677
e   0.4369116      Incl.    8.93983     -0.10723645     +0.24352146
P   2.92           H   20.2           G   0.15           U   9
Residuals in seconds of arc
060601 691  0.0   0.1-    060602 J95  0.2+  0.0     060602 291  0.1-  0.7+
060601 691  0.0   0.0     060602 J95  0.4-  0.4-    060602 291  0.1+  0.2-
060601 691  0.2+  0.3+    060602 291  0.1+  0.1-

Ephemeris:
2006 LK                  a,e,i = 2.04, 0.44, 9                   q = 1.1504
Date    TT    R. A. (2000) Decl.     Delta      r     Elong.  Phase     V
2006 05 25    16 52.86   -02 24.0    0.816    1.796   158.3    12.0    21.8
2006 06 04    16 40.89   -01 01.5    0.754    1.738   158.6    12.3    21.5
2006 06 14    16 27.40   -00 07.2    0.712    1.680   152.5    16.2    21.5
2006 06 24    16 14.39   +00 08.7    0.688    1.622   143.4    22.0    21.5
2006 07 04    16 03.96   -00 18.3    0.679    1.563   133.5    28.2    21.6
2006 07 14    15 57.70   -01 26.0    0.679    1.506   124.0    34.0    21.7
2006 07 24    15 56.41   -03 08.2    0.686    1.450   115.5    39.2    21.7
2006 08 03    16 00.40   -05 17.8    0.695    1.395   108.0    43.8    21.8
2006 08 13    16 09.60   -07 47.6    0.703    1.344   101.6    47.6    21.9
2006 08 23    16 23.83   -10 31.2    0.710    1.296    96.2    50.9    21.9
2006 09 02    16 43.03   -13 22.6    0.714    1.254    91.7    53.6    21.9
2006 09 12    17 07.11   -16 14.8    0.715    1.217    88.2    55.8    21.9
2006 09 22    17 36.10   -18 59.4    0.716    1.187    85.6    57.5    21.9
2006 10 02    18 10.03   -21 26.0    0.716    1.166    83.8    58.6    21.9
2006 10 12    18 48.63   -23 21.7    0.718    1.153    82.7    59.1    21.9
2006 10 22    19 31.27   -24 32.7    0.725    1.150    82.3    59.0    21.9
2006 11 01    20 16.78   -24 47.0    0.739    1.157    82.5    58.2    22.0
2006 11 11    21 03.43   -23 58.5    0.762    1.174    83.0    56.9    22.0

Timothy B. Spahr             (C) Copyright 2006 MPC           M.P.E.C. 2006-L21

Read MPEC 2006-L20 Read MPEC 2006-L22


Our Web policy. Index to the CBAT/MPC/ICQ pages.


Valid HTML 4.01!